Location: Arroyo de Valdeoliva
(40.1604°N, 4.9878°W)
Time: 21:22:29
(UTC+00:00)

SPOT 1/Viking Rocket - Pass Details

Date: 09 March 2026
Orbit: 773 x 788 km, 98.2° (Epoch: 11 April)

Event Time Altitude Azimuth Distance (km) Brightness Sun altitude
Rises 19:59:48 0° 222° (SW) 3,246 7.2 -19.7°
Reaches altitude 10° 20:04:48 10° 265° (W) 2,332 7.1 -20.7°
Maximum altitude 20:05:23 10° 272° (W) 2,322 7.1 -20.8°
Drops below altitude 10° 20:05:58 10° 279° (W) 2,335 7.2 -20.9°
Sets 20:11:02 0° 322° (NW) 3,277 7.6 -21.8°
